[[{"header":{"parameterUnit":"m.s-1","parameterCategory":1,"la1":30.2991,"la2":30.254,"lo1":-89.0895,"lo2":-89.0444,"dy":0.0017,"dx":0.0017,"nx":28,"ny":28,"refTime":"2025-06-21T09:00:00:Z","depth":0,"parameterNumber":2,"parameterNumberName":"U-component_of_WINDS"},"data":[0,0,0,0,0,0,0,0,0,0,0,0,0,0,0,0,0,0,0,0,0,0,0,0,0,0,0,0,0,0,0,0,0,0,0,0,0,0,0,0,0,0,0,0,0,0,0,0,0,0,0,0,0,0,0,0,0,0,-1.7989,-1.7987,0,-1.7853,-1.7852,-1.785,-1.7743,-1.7742,-1.7741,-1.774,-1.7601,-1.7598,-1.7596,0,0,0,0,0,0,0,0,0,0,0,0,0,-1.8156,-1.8153,-1.7989,-1.7987,-1.7985,-1.7854,-1.7852,-1.785,-1.7743,-1.7742,-1.7741,-1.7739,-1.7602,-1.7599,-1.7596,0,0,0,0,0,0,0,0,0,0,0,0,0,-1.8058,-1.8153,-1.7989,-1.7916,-1.7908,-1.7854,-1.7852,-1.7849,-1.7744,-1.7742,-1.774,-1.7739,-1.7603,-1.7599,-1.7595,-1.7602,0,0,-1.7583,-1.7581,0,0,0,0,0,0,0,0,-1.8064,-1.8052,-1.7929,-1.7921,-1.7912,-1.7813,-1.786,-1.7766,-1.7744,-1.7806,-1.774,-1.7738,-1.7673,-1.7663,-1.7641,-1.7595,-1.7589,-1.7582,-1.758,-1.7578,-1.7577,0,0,0,0,0,0,0,-1.8071,-1.8058,-1.7935,-1.7927,-1.7917,-1.7891,-1.7875,-1.7841,-1.775,-1.7801,-1.7793,-1.7778,-1.7668,-1.7645,-1.7637,-1.7587,-1.7582,-1.7579,-1.7576,-1.7575,-1.7542,-1.7543,0,0,0,0,0,0,-1.8089,-1.8064,-1.7939,-1.7931,-1.7986,-1.7889,-1.7872,-1.7847,-1.775,-1.7734,-1.7779,-1.7773,-1.7653,-1.7642,-1.7632,-1.7634,-1.7578,-1.7574,-1.7572,-1.754,-1.7542,-1.7544,0,0,0,0,0,0,-1.8093,-1.8079,-1.7945,-1.7995,-1.7976,-1.7888,-1.7861,-1.7845,-1.7822,-1.7734,-1.7717,-1.7773,-1.7651,-1.7638,-1.761,-1.7627,-1.7572,-1.7569,-1.7538,-1.7541,-1.7543,-1.7638,0,0,0,0,0,0,-1.8098,-1.8081,-1.8082,-1.7996,-1.7974,-1.7926,-1.7862,-1.7843,-1.7815,-1.7806,-1.7723,-1.7708,-1.7649,-1.7617,-1.7606,-1.7621,-1.7566,-1.7536,-1.7539,-1.7542,-1.7633,-1.7643,-1.7652,0,0,0,0,0,-1.8105,-1.8114,-1.8083,-1.8068,-1.7974,-1.7927,-1.7914,-1.7846,-1.7817,-1.7818,-1.7762,-1.7711,-1.7628,-1.7615,-1.7602,-1.7616,-1.7535,-1.7538,-1.7542,-1.7629,-1.7641,-1.7652,0,0,0,0,0,0,-1.8203,-1.8101,-1.8065,-1.8047,-1.7997,-1.7909,-1.7907,-1.7861,-1.7817,-1.7811,-1.7728,-1.771,-1.7692,-1.7651,-1.7639,-1.7618,-1.7575,-1.7576,-1.7645,-1.7656,-1.7666,-1.7676,-1.7562,0,0,0,0,0,-1.8223,-1.8194,-1.8106,-1.8098,-1.8075,-1.7996,-1.7973,-1.7925,-1.7869,-1.7847,-1.7789,-1.7737,-1.7699,-1.7675,-1.7636,-1.7627,-1.7608,-1.763,-1.764,-1.7648,-1.765,-1.7643,-1.7653,-1.7555,-1.7555,-1.7555,0,0,-1.8264,-1.8204,-1.819,-1.8117,-1.8072,-1.8044,-1.7979,-1.7951,-1.7929,-1.7843,-1.7813,-1.777,-1.7706,-1.7689,-1.7678,-1.7654,-1.7673,-1.7653,-1.766,-1.7657,-1.7648,-1.7657,-1.7666,-1.7557,-1.7557,-1.7557,0,0,-1.8322,-1.8275,-1.8263,-1.822,-1.8153,-1.8101,-1.8099,-1.8018,-1.7986,-1.7956,-1.7891,-1.7864,-1.78,-1.7758,-1.7728,-1.7775,-1.7726,-1.7764,-1.7814,-1.7809,-1.7816,-1.7823,-1.784,-1.7847,-1.7766,-1.7766,-1.7767,0,-1.8381,-1.8335,-1.8263,-1.824,-1.821,-1.8132,-1.812,-1.8082,-1.8006,-1.7987,-1.7962,-1.7881,-1.7833,-1.7805,-1.7817,-1.7795,-1.779,-1.7772,-1.7821,-1.7827,-1.7832,-1.7847,-1.7854,-1.7771,-1.7771,-1.777,-1.777,0,-1.8411,-1.8381,-1.838,-1.8309,-1.8279,-1.8262,-1.8188,-1.8166,-1.8122,-1.8073,-1.8044,-1.7984,-1.7931,-1.7921,-1.7877,-1.7888,-1.7875,-1.7837,-1.7791,-1.7847,-1.786,-1.7865,-1.7779,-1.7777,-1.7775,-1.7774,0,0,-1.8526,-1.8417,-1.8418,-1.8386,-1.8308,-1.8283,-1.8263,-1.8212,-1.8196,-1.8147,-1.8128,-1.8077,-1.8042,-1.8008,-1.7959,-1.7955,-1.7996,-1.7917,-1.7914,-1.7934,-1.8005,-1.8034,-1.8042,-1.7965,-1.7965,-1.7966,-1.8011,0,-1.8572,-1.8532,-1.8468,-1.8448,-1.842,-1.8347,-1.833,-1.828,-1.8235,-1.8204,-1.8154,-1.8119,-1.8075,-1.8054,-1.8047,-1.7993,-1.8009,-1.7989,-1.7947,-1.7946,-1.7964,-1.8049,-1.8079,-1.8124,-1.8015,-1.8016,-1.8016,0,-1.862,-1.8576,-1.8555,-1.848,-1.8466,-1.8452,-1.8401,-1.8372,-1.8316,-1.8283,-1.8247,-1.8194,-1.817,-1.813,-1.8096,-1.8084,-1.8063,-1.8035,-1.8035,-1.8028,-1.7984,-1.8044,-1.8136,-1.8143,-1.8024,-1.8023,-1.8023,0,-1.8707,-1.8642,-1.8621,-1.8596,-1.8508,-1.85,-1.8464,-1.8405,-1.8379,-1.8335,-1.8318,-1.8271,-1.8246,-1.8212,-1.8148,-1.8125,-1.8122,-1.8076,-1.8094,-1.8096,-1.8096,-1.8097,-1.8187,-1.8084,-1.8084,-1.8084,-1.8084,0,-1.8765,-1.8755,-1.8659,-1.8646,-1.8633,-1.856,-1.8549,-1.8506,-1.8455,-1.8433,-1.8367,-1.8348,-1.8265,-1.8236,-1.8186,-1.8167,-1.8156,-1.8129,-1.8116,-1.8135,-1.8138,-1.8119,-1.8114,-1.8086,-1.8085,-1.8085,-1.8085,0,-1.8859,-1.8794,-1.8767,-1.8687,-1.8667,-1.8661,-1.8593,-1.8578,-1.8529,-1.8502,-1.8492,-1.8416,-1.8379,-1.8312,-1.8256,-1.8223,-1.8214,-1.8191,-1.8233,-1.8225,-1.8247,-1.8246,-1.8327,-1.8334,-1.8228,-1.8229,-1.823,0,-1.89,-1.889,-1.881,-1.8791,-1.8757,-1.8726,-1.87,-1.8629,-1.8604,-1.854,-1.8534,-1.8492,-1.8454,-1.8399,-1.8339,-1.8296,-1.8272,-1.8304,-1.8265,-1.8285,-1.8273,-1.8274,-1.8273,-1.8312,-1.8314,-1.8315,-1.8316,0,-1.898,-1.8949,-1.8913,-1.8868,-1.8838,-1.8799,-1.8755,-1.8744,-1.8663,-1.8639,-1.86,-1.8572,-1.8516,-1.8475,-1.8424,-1.8387,-1.8338,-1.8329,-1.8331,-1.8349,-1.8374,-1.8362,-1.8256,-1.8327,-1.8326,-1.8325,-1.8324,-1.8324,-1.9048,-1.9037,-1.8979,-1.8942,-1.8903,-1.8865,-1.8847,-1.8797,-1.8764,-1.8713,-1.8673,-1.8639,-1.8584,-1.8511,-1.8477,-1.8449,-1.8426,-1.8429,-1.8429,-1.8431,-1.8439,-1.838,-1.8439,-1.8439,-1.8438,-1.8438,-1.8438,0,-1.9124,-1.9084,-1.9051,-1.8994,-1.8966,-1.8923,-1.8874,-1.8853,-1.8824,-1.8777,-1.8742,-1.8699,-1.866,-1.8598,-1.8554,-1.8544,-1.8521,-1.8535,-1.8535,-1.8527,-1.8461,-1.8464,-1.8555,-1.8555,-1.8555,-1.8555,-1.8555,-1.8555,-1.9161,-1.914,-1.9103,-1.9062,-1.9022,-1.8987,-1.8963,-1.8928,-1.8891,-1.8846,-1.8813,-1.8773,-1.8721,-1.8673,-1.8636,-1.8619,-1.8606,-1.8627,-1.8603,-1.8543,-1.8532,-1.8521,-1.8523,-1.8625,-1.8625,-1.8671,-1.8672,-1.8672]},{"header":{"parameterUnit":"m.s-1","parameterCategory":1,"la1":30.2991,"la2":30.254,"lo1":-89.0895,"lo2":-89.0444,"dy":0.0017,"dx":0.0017,"nx":28,"ny":28,"refTime":"2025-06-21T09:00:00:Z","depth":0,"parameterNumber":3,"parameterNumberName":"V-component_of_WINDS"},"data":[0,0,0,0,0,0,0,0,0,0,0,0,0,0,0,0,0,0,0,0,0,0,0,0,0,0,0,0,0,0,0,0,0,0,0,0,0,0,0,0,0,0,0,0,0,0,0,0,0,0,0,0,0,0,0,0,0,0,1.6164,1.6164,0,1.6175,1.6175,1.6175,1.624,1.6241,1.6243,1.6244,1.6253,1.6251,1.625,0,0,0,0,0,0,0,0,0,0,0,0,0,1.6195,1.6195,1.6164,1.6164,1.6164,1.6175,1.6175,1.6175,1.6239,1.6241,1.6243,1.6245,1.6253,1.6251,1.625,0,0,0,0,0,0,0,0,0,0,0,0,0,1.6191,1.6194,1.6164,1.6198,1.6201,1.6175,1.6175,1.6175,1.6239,1.6241,1.6244,1.6246,1.6253,1.6252,1.625,1.6191,0,0,1.6244,1.6243,0,0,0,0,0,0,0,0,1.6192,1.619,1.6192,1.6195,1.6199,1.6208,1.6189,1.6181,1.6238,1.6224,1.6244,1.6247,1.6236,1.6235,1.6232,1.6192,1.6192,1.6244,1.6243,1.6242,1.6242,0,0,0,0,0,0,0,1.6192,1.619,1.6168,1.6192,1.6196,1.6211,1.6213,1.6188,1.6217,1.6226,1.623,1.6231,1.6238,1.6234,1.6233,1.6192,1.6244,1.6242,1.6241,1.6241,1.6103,1.61,0,0,0,0,0,0,1.6188,1.619,1.6168,1.6169,1.6201,1.6209,1.6211,1.6203,1.6217,1.6222,1.6229,1.6234,1.6236,1.6235,1.6234,1.6164,1.6242,1.624,1.6239,1.6105,1.6102,1.6099,0,0,0,0,0,0,1.6188,1.6185,1.6167,1.6181,1.6179,1.6206,1.6196,1.6202,1.6198,1.622,1.6225,1.622,1.6238,1.6236,1.6201,1.6166,1.624,1.6238,1.6108,1.6104,1.6101,1.6027,0,0,0,0,0,0,1.6189,1.6185,1.6164,1.618,1.6178,1.6135,1.6194,1.62,1.6195,1.6202,1.6212,1.6216,1.6239,1.6204,1.6199,1.6164,1.6236,1.6112,1.6107,1.6102,1.6032,1.6021,1.6011,0,0,0,0,0,1.619,1.6142,1.6162,1.6159,1.6153,1.6133,1.6133,1.6161,1.6192,1.617,1.6184,1.6216,1.6171,1.62,1.6195,1.6159,1.6114,1.6108,1.6102,1.6037,1.6023,1.6011,0,0,0,0,0,0,1.612,1.6145,1.6167,1.6124,1.6126,1.6144,1.6118,1.6145,1.6138,1.6144,1.6179,1.6181,1.614,1.6147,1.6178,1.6103,1.6148,1.6141,1.61,1.6086,1.6076,1.6074,1.6235,0,0,0,0,0,1.61,1.6084,1.6106,1.6065,1.6065,1.6091,1.6084,1.6105,1.6109,1.611,1.6121,1.6122,1.6108,1.6098,1.6087,1.6034,1.6036,1.6007,1.5997,1.5988,1.5981,1.5951,1.5938,1.6081,1.6081,1.6081,0,0,1.6058,1.6069,1.6056,1.6051,1.6056,1.6036,1.6091,1.6069,1.6054,1.6106,1.6073,1.6082,1.6085,1.6041,1.6022,1.6045,1.5942,1.5981,1.5973,1.5971,1.5944,1.5931,1.5918,1.6077,1.6077,1.6078,0,0,1.597,1.5978,1.5944,1.5948,1.5954,1.5972,1.5963,1.5977,1.5985,1.5953,1.5991,1.5974,1.595,1.595,1.5947,1.586,1.5888,1.5855,1.5798,1.5769,1.5758,1.5748,1.5714,1.5702,1.5849,1.5848,1.5848,0,1.5916,1.589,1.5923,1.5898,1.5893,1.5941,1.5906,1.5907,1.5909,1.5904,1.593,1.59,1.5906,1.5861,1.584,1.5837,1.5827,1.5853,1.5757,1.5747,1.5739,1.5707,1.5695,1.5844,1.5845,1.5845,1.5845,0,1.5822,1.5803,1.5775,1.5775,1.5768,1.5738,1.5766,1.5754,1.5777,1.5791,1.5757,1.5766,1.5756,1.5748,1.577,1.5706,1.572,1.5751,1.5797,1.572,1.5691,1.5679,1.5838,1.5839,1.5841,1.5842,0,0,1.5689,1.571,1.5698,1.5699,1.5709,1.5694,1.5666,1.5657,1.5645,1.5645,1.5621,1.5599,1.5628,1.5624,1.5647,1.5622,1.5549,1.5656,1.5657,1.5634,1.5477,1.5451,1.5437,1.5569,1.5567,1.5565,1.5476,0,1.5604,1.5557,1.5586,1.5534,1.5515,1.556,1.5535,1.5538,1.5551,1.5536,1.5551,1.5534,1.5574,1.5572,1.555,1.5563,1.5517,1.557,1.5544,1.5543,1.554,1.5422,1.5395,1.531,1.5465,1.5463,1.5461,0,1.5497,1.5492,1.5438,1.5451,1.5445,1.5422,1.5415,1.5402,1.5405,1.5416,1.5412,1.5441,1.5412,1.5459,1.5419,1.5454,1.5446,1.5451,1.5448,1.5445,1.5496,1.5413,1.5284,1.527,1.5444,1.5445,1.5447,0,1.5402,1.5383,1.5348,1.5347,1.5362,1.5344,1.5349,1.5356,1.5348,1.5343,1.5338,1.5329,1.5323,1.5315,1.534,1.5372,1.5296,1.5345,1.5302,1.5301,1.5282,1.5282,1.5147,1.5281,1.5281,1.5281,1.5281,0,1.5302,1.5266,1.5305,1.5283,1.5244,1.5278,1.5239,1.5249,1.5254,1.5233,1.5273,1.5252,1.5287,1.527,1.529,1.5252,1.525,1.5257,1.5262,1.5252,1.525,1.5245,1.525,1.5278,1.5278,1.5279,1.528,0,1.5189,1.5214,1.5178,1.5195,1.5199,1.5169,1.5183,1.5163,1.5179,1.5153,1.5148,1.5173,1.5155,1.5179,1.5164,1.5176,1.5125,1.514,1.5123,1.5127,1.5081,1.5084,1.4935,1.4917,1.5065,1.5063,1.5062,0,1.5122,1.5095,1.511,1.51,1.5103,1.5086,1.5078,1.5111,1.5101,1.5103,1.5082,1.5068,1.5057,1.5026,1.5042,1.503,1.5043,1.4992,1.5041,1.5032,1.5039,1.504,1.5036,1.4981,1.4979,1.4978,1.4977,0,1.4999,1.5013,1.5001,1.4993,1.4984,1.4979,1.4977,1.4966,1.5,1.4987,1.4969,1.4962,1.4946,1.493,1.4922,1.4926,1.4956,1.4961,1.495,1.4938,1.4929,1.4931,1.5093,1.4964,1.4965,1.4966,1.4967,1.4967,1.4905,1.4884,1.489,1.4875,1.4878,1.4875,1.4856,1.487,1.4856,1.4846,1.4866,1.4843,1.4847,1.4839,1.484,1.4821,1.4843,1.4828,1.4824,1.4819,1.4811,1.4934,1.482,1.4821,1.4821,1.4822,1.4822,0,1.4783,1.4789,1.4776,1.4772,1.476,1.4791,1.479,1.4778,1.4757,1.4759,1.4748,1.4727,1.4712,1.4726,1.4714,1.4696,1.4709,1.4691,1.4692,1.4692,1.4793,1.4802,1.4681,1.4681,1.4681,1.4681,1.4681,1.4681,1.4717,1.4681,1.4696,1.4661,1.4668,1.4646,1.4642,1.4639,1.4641,1.4615,1.4603,1.4614,1.462,1.4608,1.4595,1.4599,1.4592,1.4568,1.4577,1.4671,1.4685,1.4698,1.4707,1.4567,1.4567,1.4478,1.4477,1.4476]}]]